When you browse on this site, cookies collect data to enhance your experience and personalize the content and advertising you see.
Visit our Privacy Policy to learn more. By continuing to use the site, you agree to this use of cookies and data.
  • In Hungary
  • List of Countries
  • For 7 days
  • Water Temperature
  • Weather Map
  • News
  • Weather Widgets
  • user-avatar
    Login

    Hourly Weather Slobodka

    Today, 1 June, Monday

    Time Temperature Precipitation Wind Pressure Humidity
    00:00 +17°C° 0 mm 4 mps 743 mmHg 75%
    01:00 +15°C° 0 mm 4 mps 744 mmHg 77%
    02:00 +15°C° 0 mm 4 mps 744 mmHg 80%
    03:00 +14°C° 0 mm 4 mps 744 mmHg 82%
    04:00 +14°C° 0 mm 4 mps 744 mmHg 83%
    05:00 +15°C° 0 mm 4 mps 744 mmHg 80%
    06:00 +16°C° 0 mm 5 mps 744 mmHg 77%
    07:00 +17°C° 0 mm 5 mps 744 mmHg 74%
    08:00 +19°C° 0 mm 5 mps 745 mmHg 69%
    09:00 +20°C° 0 mm 6 mps 745 mmHg 63%
    10:00 +21°C° 0 mm 6 mps 745 mmHg 58%
    11:00 +22°C° 0 mm 6 mps 746 mmHg 55%
    12:00 +22°C° 0 mm 6 mps 746 mmHg 52%
    13:00 +23°C° 0 mm 6 mps 746 mmHg 49%
    14:00 +23°C° 0 mm 6 mps 746 mmHg 49%
    15:00 +23°C° 0 mm 6 mps 746 mmHg 50%
    16:00 +23°C° 0 mm 5 mps 746 mmHg 51%
    17:00 +22°C° 0 mm 4 mps 746 mmHg 54%
    18:00 +22°C° 0 mm 3 mps 746 mmHg 58%
    19:00 +23°C° 0 mm 2 mps 746 mmHg 61%
    20:00 +20°C° 0 mm 2 mps 746 mmHg 65%
    21:00 +19°C° 0 mm 1 mps 746 mmHg 70%
    22:00 +18°C° 0 mm 1 mps 746 mmHg 74%
    23:00 +15°C° 0 mm 0 mps 746 mmHg 75%

    Tomorrow, 2 June, Tuesday

    Time Temperature Precipitation Wind Pressure Humidity
    00:00 +15°C° 0 mm 0 mps 746 mmHg 76%
    01:00 +15°C° 0 mm 0 mps 746 mmHg 78%
    02:00 +14°C° 0 mm 0 mps 746 mmHg 79%
    03:00 +14°C° 0 mm 0 mps 746 mmHg 81%
    04:00 +13°C° 0 mm 0 mps 747 mmHg 83%
    05:00 +15°C° 0 mm 0 mps 747 mmHg 78%
    06:00 +16°C° 0 mm 0 mps 747 mmHg 73%
    07:00 +20°C° 0 mm 1 mps 746 mmHg 69%
    08:00 +21°C° 0 mm 1 mps 747 mmHg 63%
    09:00 +22°C° 0 mm 1 mps 747 mmHg 58%
    10:00 +23°C° 0 mm 1 mps 747 mmHg 53%
    11:00 +24°C° 0 mm 1 mps 747 mmHg 49%
    12:00 +25°C° 0 mm 1 mps 747 mmHg 46%
    13:00 +26°C° 0 mm 1 mps 747 mmHg 42%
    14:00 +25°C° 0 mm 1 mps 747 mmHg 47%
    15:00 +25°C° 0 mm 2 mps 747 mmHg 51%
    16:00 +24°C° 0 mm 3 mps 747 mmHg 56%
    17:00 +22°C° 0 mm 4 mps 747 mmHg 61%
    18:00 +21°C° 0 mm 4 mps 746 mmHg 66%
    19:00 +20°C° 0 mm 5 mps 746 mmHg 71%
    20:00 +19°C° 0 mm 5 mps 746 mmHg 74%
    21:00 +18°C° 0 mm 4 mps 746 mmHg 76%
    22:00 +18°C° 0 mm 4 mps 746 mmHg 79%
    23:00 +17°C° 0 mm 4 mps 746 mmHg 79%

    Day after tomorrow, 3 June, Wednesday

    Time Temperature Precipitation Wind Pressure Humidity
    00:00 +17°C° 0 mm 4 mps 746 mmHg 80%
    01:00 +15°C° 0 mm 4 mps 745 mmHg 80%
    02:00 +15°C° 0 mm 4 mps 745 mmHg 79%
    03:00 +14°C° 0 mm 4 mps 745 mmHg 79%
    04:00 +14°C° 0 mm 3 mps 745 mmHg 79%
    05:00 +15°C° 0 mm 4 mps 745 mmHg 77%
    06:00 +17°C° 0 mm 4 mps 745 mmHg 75%
    07:00 +18°C° 0 mm 4 mps 745 mmHg 73%
    08:00 +19°C° 0 mm 4 mps 745 mmHg 68%
    09:00 +21°C° 0 mm 4 mps 745 mmHg 64%
    10:00 +23°C° 0 mm 5 mps 745 mmHg 59%
    11:00 +25°C° 0 mm 5 mps 745 mmHg 56%
    12:00 +26°C° 0 mm 5 mps 744 mmHg 52%
    13:00 +27°C° 0 mm 5 mps 744 mmHg 49%
    14:00 +27°C° 0 mm 5 mps 744 mmHg 49%
    15:00 +27°C° 0 mm 5 mps 744 mmHg 50%
    16:00 +27°C° 0 mm 5 mps 744 mmHg 51%
    17:00 +26°C° 0 mm 5 mps 744 mmHg 56%
    18:00 +25°C° 0 mm 5 mps 744 mmHg 61%
    19:00 +23°C° 0 mm 5 mps 743 mmHg 66%
    20:00 +22°C° 0 mm 5 mps 743 mmHg 70%
    21:00 +20°C° 0 mm 5 mps 743 mmHg 73%
    22:00 +19°C° 0 mm 5 mps 743 mmHg 77%
    23:00 +17°C° 0 mm 5 mps 743 mmHg 79%

    4 June, Thursday

    Time Temperature Precipitation Wind Pressure Humidity
    00:00 +16°C° 0 mm 5 mps 743 mmHg 81%
    01:00 +16°C° 0 mm 5 mps 742 mmHg 83%
    02:00 +16°C° 0 mm 5 mps 742 mmHg 83%
    03:00 +16°C° 0 mm 5 mps 742 mmHg 84%
    04:00 +15°C° 0 mm 4 mps 742 mmHg 85%
    05:00 +16°C° 0.1 mm 5 mps 742 mmHg 80%
    06:00 +17°C° 0.1 mm 6 mps 742 mmHg 75%
    07:00 +19°C° 0.1 mm 6 mps 742 mmHg 70%
    08:00 +20°C° 0.1 mm 6 mps 742 mmHg 67%
    09:00 +22°C° 0.1 mm 6 mps 742 mmHg 64%
    10:00 +23°C° 0.1 mm 7 mps 742 mmHg 60%
    11:00 +23°C° 0 mm 7 mps 742 mmHg 59%
    12:00 +24°C° 0 mm 7 mps 742 mmHg 58%
    13:00 +24°C° 0 mm 7 mps 742 mmHg 57%
    14:00 +23°C° 0.4 mm 7 mps 742 mmHg 62%
    15:00 +22°C° 0.4 mm 7 mps 743 mmHg 67%
    16:00 +21°C° 0.4 mm 8 mps 743 mmHg 73%
    17:00 +20°C° 0.7 mm 8 mps 743 mmHg 75%
    18:00 +20°C° 0.7 mm 8 mps 743 mmHg 77%
    19:00 +18°C° 0.7 mm 9 mps 743 mmHg 80%
    20:00 +18°C° 0 mm 8 mps 743 mmHg 76%
    21:00 +18°C° 0 mm 8 mps 744 mmHg 71%
    22:00 +18°C° 0 mm 8 mps 744 mmHg 67%
    23:00 +18°C° 0.1 mm 8 mps 744 mmHg 66%

    5 June, Friday

    Time Temperature Precipitation Wind Pressure Humidity
    00:00 +18°C° 0.1 mm 8 mps 744 mmHg 65%
    01:00 +17°C° 0.1 mm 8 mps 744 mmHg 64%
    02:00 +17°C° 0.5 mm 7 mps 744 mmHg 66%
    03:00 +16°C° 0.5 mm 7 mps 744 mmHg 68%
    04:00 +15°C° 0.5 mm 6 mps 744 mmHg 71%
    05:00 +15°C° 0.1 mm 6 mps 745 mmHg 70%
    06:00 +15°C° 0.1 mm 6 mps 745 mmHg 69%
    07:00 +15°C° 0.1 mm 6 mps 745 mmHg 68%
    08:00 +15°C° 0.3 mm 6 mps 745 mmHg 70%
    09:00 +15°C° 0.3 mm 6 mps 746 mmHg 71%
    10:00 +15°C° 0.3 mm 6 mps 746 mmHg 73%
    11:00 +15°C° 0.2 mm 6 mps 746 mmHg 71%
    12:00 +16°C° 0.2 mm 6 mps 747 mmHg 70%
    13:00 +16°C° 0.2 mm 7 mps 747 mmHg 68%
    14:00 +17°C° 0.1 mm 8 mps 747 mmHg 66%
    15:00 +17°C° 0.1 mm 8 mps 747 mmHg 65%
    16:00 +18°C° 0.1 mm 9 mps 747 mmHg 63%
    17:00 +17°C° 0.1 mm 9 mps 747 mmHg 64%
    18:00 +16°C° 0.1 mm 9 mps 747 mmHg 66%
    19:00 +16°C° 0.1 mm 8 mps 747 mmHg 67%
    20:00 +16°C° 0 mm 8 mps 747 mmHg 64%
    21:00 +16°C° 0 mm 7 mps 747 mmHg 62%
    22:00 +16°C° 0 mm 7 mps 747 mmHg 59%
    23:00 +15°C° 0 mm 6 mps 747 mmHg 59%

    6 June, Saturday

    Time Temperature Precipitation Wind Pressure Humidity
    00:00 +15°C° 0 mm 6 mps 747 mmHg 59%
    01:00 +15°C° 0 mm 6 mps 747 mmHg 59%
    02:00 +15°C° 0.1 mm 5 mps 747 mmHg 62%
    03:00 +15°C° 0.1 mm 5 mps 746 mmHg 64%
    04:00 +14°C° 0.1 mm 4 mps 746 mmHg 67%
    05:00 +14°C° 0.2 mm 4 mps 746 mmHg 70%
    06:00 +14°C° 0.2 mm 5 mps 746 mmHg 73%
    07:00 +14°C° 0.2 mm 5 mps 746 mmHg 75%
    08:00 +13°C° 1.9 mm 5 mps 747 mmHg 81%
    09:00 +13°C° 1.9 mm 5 mps 747 mmHg 87%
    10:00 +12°C° 1.9 mm 4 mps 747 mmHg 93%
    11:00 +13°C° 1.2 mm 4 mps 747 mmHg 91%
    12:00 +13°C° 1.2 mm 4 mps 747 mmHg 89%
    13:00 +14°C° 1.2 mm 4 mps 747 mmHg 87%
    14:00 +15°C° 0 mm 4 mps 747 mmHg 84%
    15:00 +17°C° 0 mm 4 mps 747 mmHg 80%
    16:00 +17°C° 0 mm 4 mps 747 mmHg 77%
    17:00 +17°C° 0 mm 4 mps 748 mmHg 79%
    18:00 +17°C° 0 mm 4 mps 748 mmHg 81%
    19:00 +15°C° 0 mm 4 mps 748 mmHg 83%
    20:00 +14°C° 0 mm 4 mps 748 mmHg 86%
    21:00 +13°C° 0 mm 3 mps 748 mmHg 90%
    22:00 +12°C° 0 mm 3 mps 748 mmHg 93%
    23:00 +11°C° 0 mm 3 mps 748 mmHg 93%
    Show more